Stations météo

réclame
Mon MeteoGroup
Le Talut, France (7207): Température de l'air & dewpoint: 19.02.2018 02:00:00 - 25.02.2018 02:00:00 (CET)Le Talut, France (7207): Vitesse du vent & gusts: 19.02.2018 02:00:00 - 25.02.2018 02:00:00 (CET)Le Talut, France (7207): Direction du vent: 19.02.2018 02:00:00 - 25.02.2018 02:00:00 (CET)Le Talut, France (7207): reduced air pressure: 19.02.2018 02:00:00 - 25.02.2018 02:00:00 (CET)Le Talut, France (7207): visibility: 19.02.2018 02:00:00 - 25.02.2018 02:00:00 (CET)Le Talut, France (7207): Quantités de précipitations: 19.02.2018 02:00:00 - 25.02.2018 02:00:00 (CET)
Date & Time tt [°C] td [°C] ff [km/h] ff [knt] fx [km/h] fx [knt] dd ppp [hPa] vv [km] rr [mm]
25.02.2018 02:00:00 2,1 -1,3 19 11 31 17 ENE 1016,6 - 0,0
25.02.2018 01:00:00 2,9 -1,8 22 12 42 23 ENE 1016,5 - 0,0
25.02.2018 00:00:00 3,8 -2,0 26 14 58 32 E 1016,3 - 0,0
24.02.2018 23:00:00 3,8 -1,6 23 12 41 22 E 1016,2 - 0,0
24.02.2018 22:00:00 4,1 -1,1 19 11 34 19 E 1015,9 - 0,0
24.02.2018 21:00:00 3,6 -1,4 16 9 31 17 ENE 1015,6 - 0,0
24.02.2018 20:00:00 3,9 -1,5 18 10 30 16 ENE 1015,5 - 0,0
24.02.2018 19:00:00 4,3 -1,3 17 9 29 16 E 1014,8 - 0,0
24.02.2018 18:00:00 5,2 -1,1 15 8 34 19 ENE 1014,1 - 0,0
24.02.2018 17:00:00 5,7 -1,0 19 10 37 20 ENE 1013,8 - 0,0
24.02.2018 16:00:00 5,3 -1,8 24 13 40 21 NE 1013,8 - 0,0
24.02.2018 15:00:00 5,3 -1,4 25 14 42 23 ENE 1013,6 - 0,0
24.02.2018 14:00:00 5,1 -2,0 24 13 43 23 E 1014,0 - 0,0
24.02.2018 13:00:00 4,7 -1,5 24 13 43 23 E 1014,3 - 0,0
24.02.2018 12:00:00 4,3 -1,3 22 12 40 22 E 1014,6 - 0,0
24.02.2018 11:00:00 3,4 -1,4 24 13 43 23 E 1014,6 - 0,0
24.02.2018 10:00:00 2,3 -1,9 24 13 42 23 E 1014,2 12 0,0
24.02.2018 09:00:00 1,4 -2,2 24 13 41 22 E 1014,0 - 0,0
24.02.2018 08:00:00 0,8 -2,3 22 12 40 21 E 1013,3 - 0,0
24.02.2018 07:00:00 0,6 -2,3 22 12 35 19 ENE 1013,2 - 0,0
24.02.2018 06:00:00 0,8 -2,1 21 11 34 19 ENE 1013,1 - 0,0
24.02.2018 05:00:00 0,8 -2,8 21 11 31 17 ENE 1013,1 - 0,0
24.02.2018 04:00:00 1,6 -3,3 19 11 40 22 E 1013,1 - 0,0
24.02.2018 03:00:00 1,9 -3,2 24 13 46 25 E 1013,4 - 0,0
24.02.2018 02:00:00 2,4 -2,5 24 13 41 22 E 1013,4 - 0,0
24.02.2018 01:00:00 3,0 -2,1 29 16 51 27 E 1013,3 - 0,0
24.02.2018 00:00:00 3,3 -1,7 29 16 54 29 E 1013,4 - 0,0
23.02.2018 23:00:00 3,6 -2,4 34 18 50 27 E 1013,0 - 0,0
23.02.2018 22:00:00 3,7 -2,3 25 14 47 26 E 1013,0 - 0,0
23.02.2018 21:00:00 3,9 -2,3 22 12 35 19 E 1013,2 - 0,0
23.02.2018 20:00:00 3,5 -2,7 21 11 36 19 ENE 1013,1 - 0,0
23.02.2018 19:00:00 3,3 -3,5 13 7 24 13 ENE 1013,1 - 0,0
23.02.2018 18:00:00 5,0 -3,1 20 11 40 22 NE 1012,8 - 0,0
23.02.2018 17:00:00 5,6 -2,7 24 13 43 23 ENE 1012,8 - 0,0
23.02.2018 16:00:00 5,9 -2,5 27 14 42 23 ENE 1013,1 15 0,0
23.02.2018 15:00:00 5,8 -2,3 27 15 49 26 ENE 1013,6 - 0,0
23.02.2018 14:00:00 5,5 -2,6 30 16 46 25 ENE 1014,1 - 0,0
23.02.2018 13:00:00 4,6 -2,7 30 16 48 26 ENE 1014,9 - 0,0
23.02.2018 12:00:00 3,5 -2,1 29 16 44 24 ENE 1015,7 - 0,0
23.02.2018 11:00:00 3,2 -1,6 24 13 39 21 ENE 1016,1 - 0,0
23.02.2018 10:00:00 2,5 -1,7 22 12 39 21 ENE 1016,2 - 0,0
23.02.2018 09:00:00 1,4 -1,7 18 10 27 15 ENE 1016,1 - 0,0
23.02.2018 08:00:00 0,4 -2,2 18 10 31 17 ENE 1016,0 - 0,0
23.02.2018 07:00:00 0,4 -2,5 18 10 32 17 ENE 1016,1 - 0,0
23.02.2018 06:00:00 1,0 -2,1 23 13 34 19 ENE 1016,1 - 0,0
23.02.2018 05:00:00 0,9 -2,2 19 11 31 17 NE 1016,2 - 0,0
23.02.2018 04:00:00 1,0 -2,2 19 10 29 16 ENE 1016,4 - 0,0
23.02.2018 03:00:00 1,7 -2,8 17 9 36 20 E 1016,7 - 0,0
23.02.2018 02:00:00 2,5 -2,2 23 12 42 23 E 1017,0 - 0,0
23.02.2018 01:00:00 2,9 -2,6 30 16 54 29 E 1017,3 - 0,0
23.02.2018 00:00:00 3,5 -0,9 23 13 59 32 E 1017,5 - 0,0
22.02.2018 23:00:00 4,0 -0,8 33 18 51 28 ENE 1017,3 - 0,0
22.02.2018 22:00:00 4,3 -1,1 27 14 44 24 NE 1017,4 - 0,0
22.02.2018 21:00:00 4,7 -1,8 24 13 40 22 NE 1017,1 - 0,0
22.02.2018 20:00:00 4,8 -2,1 21 11 30 16 NE 1017,2 - 0,0
22.02.2018 19:00:00 5,1 -3,5 14 8 30 16 NE 1017,0 12 0,0
22.02.2018 18:00:00 6,3 -3,1 15 8 32 17 NNE 1016,8 - 0,0
22.02.2018 17:00:00 7,0 -3,0 21 12 39 21 NE 1016,8 - 0,0
22.02.2018 16:00:00 7,1 -2,9 23 12 36 20 NNE 1017,2 12 0,0
22.02.2018 15:00:00 7,3 -2,5 22 12 36 19 NE 1017,9 - 0,0
22.02.2018 14:00:00 6,3 -1,1 21 12 35 19 ENE 1018,6 - 0,0
22.02.2018 13:00:00 5,8 -0,9 22 12 37 20 NE 1018,9 12 0,0
22.02.2018 12:00:00 4,7 -0,3 24 13 41 22 ENE 1019,4 - 0,0
22.02.2018 11:00:00 4,1 0,1 24 13 39 21 ENE 1019,6 - 0,0
22.02.2018 10:00:00 3,1 -0,5 22 12 32 17 ENE 1019,8 12 0,0
22.02.2018 09:00:00 1,7 -0,9 16 9 25 14 NE 1019,8 - 0,0
22.02.2018 08:00:00 0,9 -1,3 17 9 23 13 NE 1019,8 - 0,0
22.02.2018 07:00:00 1,1 -1,1 17 9 29 16 NE 1019,6 - 0,0
22.02.2018 06:00:00 1,7 -0,4 25 13 40 21 ENE 1019,4 - 0,0
22.02.2018 05:00:00 2,2 -0,4 27 15 40 21 ENE 1019,5 - 0,0
22.02.2018 04:00:00 1,9 -0,7 27 15 41 22 ENE 1019,8 - 0,0
22.02.2018 03:00:00 2,4 -0,7 28 15 41 22 ENE 1020,7 - 0,0
22.02.2018 02:00:00 3,0 -0,6 27 15 45 24 NE 1020,9 - 0,0
22.02.2018 01:00:00 3,3 -0,5 25 13 47 26 ENE 1021,2 - 0,0
22.02.2018 00:00:00 3,8 -0,6 24 13 45 25 ENE 1021,3 - 0,0
21.02.2018 23:00:00 4,3 -0,9 26 14 42 23 ENE 1021,7 - 0,0
21.02.2018 22:00:00 4,9 -0,9 24 13 46 25 NE 1022,0 - 0,0
21.02.2018 21:00:00 4,9 -1,3 20 11 41 22 NNE 1021,9 - 0,0
21.02.2018 20:00:00 5,4 -1,5 20 11 37 20 NNE 1021,7 - 0,0
21.02.2018 19:00:00 5,9 -1,1 18 10 29 16 NNE 1021,4 - 0,0
21.02.2018 18:00:00 7,2 -1,2 14 7 32 18 NNE 1021,3 - 0,0
21.02.2018 17:00:00 8,5 -0,8 20 11 36 20 NNE 1021,3 - 0,0
21.02.2018 16:00:00 8,9 -1,8 26 14 39 21 NNE 1021,5 20 0,0
21.02.2018 15:00:00 8,9 -1,0 26 14 43 23 ENE 1022,0 - 0,0
21.02.2018 14:00:00 8,8 -0,5 23 12 43 23 ENE 1022,7 - -
21.02.2018 13:00:00 8,9 2,0 26 14 44 24 ENE 1023,1 14 0,0
21.02.2018 12:00:00 8,2 0,9 29 16 45 25 NE 1023,4 - 0,0
21.02.2018 11:00:00 7,4 2,7 26 14 41 22 NE 1023,4 - 0,0
21.02.2018 10:00:00 7,0 3,6 25 13 40 22 NE 1023,4 14 0,0
21.02.2018 09:00:00 6,4 4,1 20 11 34 19 NNE 1023,0 - 0,0
21.02.2018 08:00:00 6,5 4,0 13 7 29 15 NNE 1022,8 - 0,0
21.02.2018 07:00:00 6,8 4,3 14 8 37 20 NNE 1022,6 - 0,0
21.02.2018 06:00:00 7,1 4,4 20 11 37 20 N 1022,3 - 0,0
21.02.2018 05:00:00 6,5 4,3 13 7 26 14 N 1022,6 - 0,0
21.02.2018 04:00:00 6,5 4,5 18 10 32 18 N 1022,8 - 0,0
21.02.2018 03:00:00 6,1 4,3 17 9 33 18 N 1023,1 - 0,0
21.02.2018 02:00:00 6,5 4,2 17 9 39 21 N 1023,2 - 0,0
21.02.2018 01:00:00 6,5 3,6 18 10 33 18 N 1023,4 - 0,0
21.02.2018 00:00:00 6,5 3,3 18 10 35 19 N 1023,6 - 0,0
20.02.2018 23:00:00 6,8 3,2 18 10 33 18 N 1023,8 - 0,0
20.02.2018 22:00:00 7,2 3,2 20 11 40 22 N 1023,7 - 0,0
20.02.2018 21:00:00 7,8 3,1 26 14 46 25 N 1023,7 - 0,0
20.02.2018 20:00:00 7,8 3,1 25 13 42 23 N 1023,4 - 0,0
20.02.2018 19:00:00 8,2 2,8 26 14 42 23 N 1022,9 - 0,0
20.02.2018 18:00:00 9,7 4,3 26 14 46 25 N 1022,4 - 0,0
20.02.2018 17:00:00 11,0 6,9 23 12 41 22 N 1022,2 - 0,0
20.02.2018 16:00:00 11,0 7,3 30 16 52 28 N 1022,1 18 0,0
20.02.2018 15:00:00 11,2 7,9 31 17 54 29 N 1022,3 - 0,0
20.02.2018 14:00:00 11,3 8,9 34 18 54 29 N 1022,4 - 0,0
20.02.2018 13:00:00 10,7 9,1 27 15 43 23 NW 1022,8 20 0,0
20.02.2018 12:00:00 10,8 8,7 30 16 43 23 NW 1022,7 - 0,0
20.02.2018 11:00:00 10,5 8,3 24 13 39 21 NW 1022,6 - 0,0
20.02.2018 10:00:00 9,9 8,0 25 14 46 25 NNW 1022,5 20 0,0
20.02.2018 09:00:00 9,1 7,7 21 11 31 17 NNW 1022,0 - 0,0
20.02.2018 08:00:00 8,6 7,2 22 12 39 21 NNW 1021,5 - 0,0
20.02.2018 07:00:00 8,8 7,4 24 13 41 22 NNW 1021,4 - 0,0
20.02.2018 06:00:00 8,8 7,4 28 15 46 25 NNW 1021,0 - 0,0
20.02.2018 05:00:00 9,1 7,9 30 16 54 29 NNW 1020,7 - 0,0
20.02.2018 04:00:00 9,4 8,3 31 17 49 26 NW 1020,9 - 0,0
20.02.2018 03:00:00 9,5 8,6 26 14 42 23 NW 1021,0 - 0,0
20.02.2018 02:00:00 9,6 8,7 28 15 47 26 NW 1020,9 - 0,0
20.02.2018 01:00:00 9,5 8,6 27 14 46 25 NW 1021,0 - 0,0
20.02.2018 00:00:00 9,8 8,9 28 15 40 22 NW 1021,0 - 0,0
19.02.2018 23:00:00 9,7 8,8 21 11 35 19 NW 1021,0 - 0,0
19.02.2018 22:00:00 9,8 8,9 23 12 35 19 NNW 1021,0 - 0,0
19.02.2018 21:00:00 9,9 9,1 24 13 37 20 NNW 1021,0 - 0,0
19.02.2018 20:00:00 10,0 9,4 25 14 37 20 NNW 1020,7 - 0,0
19.02.2018 19:00:00 10,0 9,4 20 11 34 19 NW 1020,6 12 0,0
19.02.2018 18:00:00 10,5 9,7 22 12 39 21 NW 1020,2 - 0,0
19.02.2018 17:00:00 10,8 10,0 24 13 37 20 NW 1020,0 - 0,0
19.02.2018 16:00:00 10,8 10,2 26 14 37 20 NW 1020,2 8 0,0
19.02.2018 15:00:00 10,7 10,4 26 14 36 19 NW 1020,1 - 0,0
19.02.2018 14:00:00 10,7 10,5 21 11 35 19 NW 1020,2 - 0,0
19.02.2018 13:00:00 10,5 10,3 19 11 30 16 NW 1020,6 6 0,0
19.02.2018 12:00:00 10,4 10,4 21 11 34 18 NW 1020,6 - 0,0
19.02.2018 11:00:00 10,3 10,3 16 9 30 16 NW 1020,3 - 0,2
19.02.2018 10:00:00 10,0 10,0 19 10 27 15 NNW 1020,5 - 0,4
19.02.2018 09:00:00 9,9 9,9 20 11 30 16 NNW 1020,4 - 0,4
19.02.2018 08:00:00 9,9 9,7 18 10 29 16 NW 1020,2 - 0,4
19.02.2018 07:00:00 9,9 9,7 18 10 26 14 NW 1020,1 - 0,0
19.02.2018 06:00:00 9,9 9,7 17 9 27 15 NW 1019,9 - 0,0
19.02.2018 05:00:00 9,9 9,7 19 10 27 15 NW 1019,9 - 0,0
19.02.2018 04:00:00 9,9 9,7 18 10 24 13 NNW 1020,2 - 0,0
19.02.2018 03:00:00 9,9 9,7 14 8 29 16 NNW 1020,3 - 0,0
19.02.2018 02:00:00 9,9 9,7 17 9 29 16 NW 1020,4 - 0,0

tt = Température de l'air
td = dewpoint
ff = Vitesse du vent
fx = gusts
dd = Direction du vent
ppp = reduced air pressure
vv = visibility
rr = Quantités de précipitations

stations d'obs. à proximité